• MPC Preparation (Info)

  • MPEC 2020-K10 : 2020 JD2

    The following Minor Planet Electronic Circular may be linked-to from your own Web pages, but must not otherwise be redistributed electronically.

    A form allowing access to any MPEC is at the bottom of this page.


    Read MPEC 2020-K09 Read MPEC 2020-K11


    M.P.E.C. 2020-K10                                  Issued 2020 May 17, 07:07 UT
    
         The Minor Planet Electronic Circulars contain information on unusual
             minor planets and routine data on comets.  They are published
        on behalf of Division F of the International Astronomical Union by the
              Minor Planet Center, Smithsonian Astrophysical Observatory,
                              Cambridge, MA 02138, U.S.A.
    
                 Prepared using the Tamkin Foundation Computer Network
    
                                  MPC@CFA.HARVARD.EDU
                URL https://www.minorplanetcenter.net/    ISSN 1523-6714
    
                                    2020 JD2                                 
    
    
    Observations:
         K20J02D* C2020 05 15.31683 15 23 52.61 +19 09 46.2          19.4 GVEK010G96
         K20J02D  C2020 05 15.32158 15 23 59.74 +19 10 28.7          19.6 GVEK010G96
         K20J02D  C2020 05 15.32634 15 24 06.87 +19 11 11.3          19.6 GVEK010G96
         K20J02D  C2020 05 15.33109 15 24 14.00 +19 11 53.8          19.6 GVEK010G96
         K20J02D  C2020 05 15.39858 15 25 56.80 +19 21 54.0          19.1 GVEK010I52
         K20J02D  C2020 05 15.39914 15 25 57.69 +19 21 59.0          19.2 GVEK010I52
         K20J02D  C2020 05 15.39971 15 25 58.54 +19 22 03.9          18.9 GVEK010I52
         K20J02D  C2020 05 15.40028 15 25 59.44 +19 22 09.1          19.4 GVEK010I52
         K20J02D  C2020 05 15.84633 15 39 02.25 +20 29 49.1          20.0 VVEK010033
         K20J02D  C2020 05 15.84691 15 39 03.29 +20 29 54.7          20.0 VVEK010033
         K20J02D  C2020 05 15.84748 15 39 04.30 +20 30 00.4          20.0 VVEK010033
         K20J02D  C2020 05 15.84810 15 39 05.37 +20 30 06.6          20.1 VVEK010033
         K20J02D  C2020 05 15.84880 15 39 06.64 +20 30 13.3          19.9 VVEK010033
         K20J02D KC2020 05 15.85364 15 39 15.88 +20 31 03.8          19.3 GVEK010A17
         K20J02D KC2020 05 15.86241 15 39 31.28 +20 32 28.8          19.2 GVEK010A17
         K20J02D KC2020 05 15.87106 15 39 46.55 +20 33 53.3          18.9 GVEK010A17
         K20J02D KC2020 05 15.88699815 40 14.88 +20 36 51.1          20.1 GVEK010598
         K20J02D KC2020 05 15.89239015 40 24.30 +20 37 43.1          19.8 GVEK010598
         K20J02D KC2020 05 15.89916915 40 36.27 +20 38 48.7          19.4 GVEK010598
         K20J02D KC2020 05 15.93234615 41 36.31 +20 43 27.6          19.6 GVEK010Z99
         K20J02D KC2020 05 15.93524115 41 41.49 +20 43 55.7          19.8 GVEK010Z99
         K20J02D KC2020 05 15.93813615 41 46.66 +20 44 23.7          19.8 GVEK010Z99
         K20J02D KC2020 05 15.94045515 41 51.31 +20 44 53.3          18.9 GVEK010J95
         K20J02D KC2020 05 15.94323215 41 56.25 +20 45 20.2          19.2 GVEK010J95
         K20J02D KC2020 05 15.94475715 41 58.97 +20 45 35.0          19.6 GVEK010J95
         K20J02D KC2020 05 15.97236215 42 45.97 +20 50 33.9          19.9 GVEK010K63
         K20J02D KC2020 05 15.97600 15 42 52.57 +20 50 45.2          19.4 GVEK010K87
         K20J02D KC2020 05 15.97706615 42 54.39 +20 51 19.4          19.6 GVEK010K63
         K20J02D KC2020 05 15.97997715 42 59.61 +20 51 47.4          19.4 GVEK010K63
         K20J02D KC2020 05 15.98119 15 43 01.90 +20 51 35.0          19.4 GVEK010K87
         K20J02D KC2020 05 15.98640 15 43 11.23 +20 52 24.5          19.8 GVEK010K87
         K20J02D  C2020 05 16.05607 15 45 17.54 +21 03 19.2          20.2 VVEK010033
         K20J02D  C2020 05 16.05670 15 45 18.70 +21 03 25.1          20.2 VVEK010033
         K20J02D  C2020 05 16.05733 15 45 19.85 +21 03 31.1          20.4 VVEK010033
         K20J02D  C2020 05 16.28106 15 52 48.54 +21 41 04.0          19.0 GVEK010I52
         K20J02D  C2020 05 16.28137 15 52 49.12 +21 41 07.1          19.2 GVEK010I52
         K20J02D  C2020 05 16.28168 15 52 49.70 +21 41 10.0          18.9 GVEK010I52
         K20J02D  C2020 05 16.28198 15 52 50.29 +21 41 12.9          19.2 GVEK010I52
         K20J02D  C2020 05 16.38778 15 56 17.15 +21 58 13.1          19.6 GVEK010654
         K20J02D  C2020 05 16.41746 15 57 15.76 +22 02 56.7          19.2 GVEK010654
         K20J02D  C2020 05 16.44508 15 58 10.93 +22 07 18.4          19.5 GVEK010654
         K20J02D  C2020 05 16.47874 15 59 19.08 +22 12 34.7          19.6 GVEK010654
         K20J02D KC2020 05 16.95234 16 17 15.49 +23 29 09.7          19.3 VqEK010I93
         K20J02D KC2020 05 16.95890 16 17 30.35 +23 30 14.7          19.0 VqEK010I93
         K20J02D KC2020 05 16.96689 16 17 48.51 +23 31 34.2          19.0 VqEK010I93
         K20J02D KC2020 05 17.02022 16 19 47.58 +23 39 49.3          18.9 GVEK010K87
         K20J02D KC2020 05 17.03148 16 20 13.60 +23 41 37.9          19.4 GVEK010K87
         K20J02D KC2020 05 17.17565 16 26 16.41 +24 05 41.2          19.6 GVEK010W34
         K20J02D KC2020 05 17.18395 16 26 36.05 +24 07 03.8          19.4 GVEK010W34
         K20J02D KC2020 05 17.19238 16 26 56.10 +24 08 27.3          19.8 GVEK010W34
         K20J02D KC2020 05 17.19975 16 27 13.70 +24 09 37.6          19.6 GVEK010W34
    
    Observer details:
    033 Karl Schwarzschild Observatory, Tautenburg.  Observers S. Melnikov, C. 
       Hoegner, B. Stecklum.  Measurer B. Stecklum.  1.34-m f/3 Schmidt + CCD.
    598 Loiano.  Observer A. Carbognani.
    654 Table Mountain Observatory, Wrightwood-PHMC.  Observers P. Choi, N. Saini, 
       C. Zhai, R. Trahan, M. Shao.
    A17 Guidestar Observatory, Weinheim.  Observers M. Emmerich, S. Melchert.  
        0.36-m f/6 Schmidt-Cassegrain + CCD.
    G96 Mt. Lemmon Survey.  Observer G. J. Leonard.  Measurers E. J. Christensen, 
       G. A. Farneth, D. C. Fuls, A. R. Gibbs, A. D. Grauer, H. Groeller, R. A. 
       Kowalski, S. M. Larson, G. J. Leonard, T. A. Pruyne, D. Rankin, R. L. Seaman,
        F. C. Shelly, K. W. Wierzchos.  1.5-m reflector + 10K CCD.
    I52 Steward Observatory, Mt. Lemmon Station.  Observers D. Rankin, D. C. Fuls.  
        Measurers E. J. Christensen, G. A. Farneth, D. C. Fuls, A. R. Gibbs, A. D. 
       Grauer, H. Groeller, R. A. Kowalski, S. M. Larson, G. J. Leonard, T. A. 
       Pruyne, D. Rankin, R. L. Seaman, F. C. Shelly, K. W. Wierzchos.  1.0-m 
       reflector + CCD.
    I93 St Pardon de Conques.  Observer F. Losse.  0.40-m f/3.7 reflector + CCD.
    J95 Great Shefford.  Observer P. Birtwhistle.  0.41-m f/6.3 Schmidt-Cassegrain 
       + CCD.
    K63 G. Pascoli Observatory, Castelvecchio Pascoli.  Observer R. Bacci.  0.4-m 
       f/3.2 Newtonian reflector + CCD.
    K87 Dettelbach Vineyard Observatory.  Observer B. Haeusler.  0.3-m f/5.7 
       Schmidt-Cassegrain + CCD.
    W34 Squirrel Valley Observatory, Columbus.  Observer R. L. Flynn.  0.35-m f/1.9 
       Schmidt-Cassegrain + CCD.
    Z99 Clixby Observatory, Cleethorpes.  Observer A. Mickleburgh.  0.36-m f/8 
       Schmidt-Cassegrain + CCD.
    
    Orbital elements:
    2020 JD2                                                 Earth MOID = 0.0132 AU
    Epoch 2020 May 16.0 TT = JDT 2458985.5                  Bell                    
    M 355.06328              (2000.0)            P               Q                  
    n   0.23739721     Peri.  120.52580     -0.16323820     +0.98650405             
    a   2.5831659      Node   140.07294     -0.91185609     -0.14591955             
    e   0.6137791      Incl.    1.14000     -0.37665867     -0.07427816             
    P   4.15           H   25.57          G   0.15           U   8                  
    Residuals in seconds of arc
    200515 G96  0.0+  0.1+    200515 598  0.5- -0.0+    200516 I52  0.1-  0.1-
    200515 G96  0.2+  0.0-    200515 598  0.1+  0.2-    200516 I52  0.3-  0.0-
    200515 G96  0.0-  0.0-    200515 Z99  0.0+  0.2+    200516 I52  0.5-  0.2-
    200515 G96  0.2-  0.1-    200515 Z99  0.1+  0.2+    200516 I52  0.3-  0.2-
    200515 I52  0.1-  0.1+    200515 Z99  0.0+  0.2+    200516 654  0.2-  0.0-
    200515 I52  0.3+  0.2+    200515 J95  0.1+  0.1-    200516 654  0.5-  0.1-
    200515 I52  0.1-  0.1+    200515 J95  0.2-  0.1-    200516 654  0.5-  0.0-
    200515 I52  0.1+  0.2+    200515 J95  0.3-  0.1-    200516 654  0.3-  0.0+
    200515 033  0.1-  0.3-    200515 K63  0.4-  0.7-    200516 I93  0.4+  0.1-
    200515 033  0.1+  0.3-    200515 K87  0.4+  0.2+    200516 I93  0.0-  0.2-
    200515 033  0.2+  0.1-    200515 K63  0.1+  0.2-    200516 I93  0.1+  0.3+
    200515 033  0.1-  0.0+    200515 K63  0.4+  0.0-    200517 K87  0.2+  0.6-
    200515 033  0.5+  0.1-    200515 K87  0.7+  0.4+    200517 K87  0.9+  0.2+
    200515 A17  0.4+  0.3+    200515 K87  0.3+  0.1+    200517 W34  0.0+  0.5-
    200515 A17  0.4-  0.1-    200516 033  0.4-  0.3-    200517 W34  1.2-  0.4+
    200515 A17  0.1-  0.3+    200516 033  0.4-  0.3-    200517 W34  1.2-  1.3+
    200515 598  0.3+  0.4+    200516 033  0.5-  0.3-    200517 W34  0.4-  0.5-
    Ephemeris:
    2020 JD2                 a,e,i = 2.58, 0.61, 1                   q = 0.9977
    Date    TT    R. A. (2000) Decl.     Delta      r    Elong.  Phase     V
    2020 04 17    13 07 51.1 -00 17 43   0.1930  1.1926   166.9    11.0    23.1
    ...
    2020 05 02    13 24 52.8 +04 13 01   0.1017  1.0998   153.4    24.2    21.9
    ...
    2020 05 10    14 02 30.6 +09 55 33   0.05881 1.0601   148.0    30.3    20.9
    ...
    2020 05 16    15 43 36.0 +20 56 38   0.03224 1.0360   139.9    39.0    19.7
    2020 05 17    16 18 59.3 +23 38 39   0.02921 1.0325   135.8    43.1    19.6
    2020 05 18    17 03 01.0 +26 09 34   0.02699 1.0291   130.0    48.8    19.6
    ...
    2020 05 24    21 36 47.2 +21 23 33   0.03523 1.0124    88.5    89.5    21.5
    ...
    2020 06 01    23 17 09.7 +11 06 20   0.07210 0.9997    76.5    99.5    23.5
    ...
    2020 06 16    00 01 05.9 +06 12 31   0.1474  1.0069    82.3    89.3    24.6
    
    M. P. C. Staff               (C) Copyright 2020 MPC           M.P.E.C. 2020-K10
    


    Read MPEC 2020-K09 Read MPEC 2020-K11


    MPEC number:

    Enter an MPEC number in one of the following forms:

    • 1997-B01 (the full form)
    • J97B01 (the packed version of the full form)
    • B01 (the abbreviated form)